Weather History for Midlothian, TX

Change the Weather History Date:

Saturday, October 27, 2012

  Actual Average (KRBD) Record (KRBD)
Temperature  
Mean Temperature 45 °F -  
Max Temperature 55 °F 72 °F 84 °F (2004)
Min Temperature 35 °F 53 °F 37 °F (2012)
Degree Days  
Heating Degree Days 20    
Moisture  
Dew Point 30 °F    
Average Humidity 58    
Maximum Humidity 87    
Minimum Humidity 33    
Precipitation  
Precipitation 0.00 in - - ()
Sea Level Pressure  
Sea Level Pressure 30.26 in    
Wind  
Wind Speed 8 mph (NNW)    
Max Wind Speed 14 mph    
Max Gust Speed 18 mph    
Visibility 10 miles    
Events      
Averages and records for this station are not official NWS values.
T = Trace of Precipitation, MM = Missing Value Source: NWS Daily Summary

Daily Weather History Graph

Daily Weather History Graph

Search for Another Location

Airport:

Trip Planner

Search our weather history database for the weather conditions in past years. The results will help you decide how hot, cold, wet, or windy it might be!

Date:

Astronomy

Oct. 27, 2012 Rise Set
Actual Time 7:41 AM CDT 6:41 PM CDT
Civil Twilight 7:16 AM CDT 7:06 PM CDT
Nautical Twilight 6:47 AM CDT 7:35 PM CDT
Astronomical Twilight 6:18 AM CDT 8:03 PM CDT
Moon 5:24 PM CDT (10/27) 5:42 AM CDT (10/27)
Length of Visible Light 11h 50m
Length of Day
11h 00m
Waxing Gibbous, 96% of the Moon is Illuminated
Oct 27
Waxing Gibbous
Oct 29
Full
Nov 6
Last Quarter
Nov 13
New
Nov 20
First Quarter

Hourly Weather History & Observations

Time (CDT) Temp. Windchill Dew Point Humidity Pressure Visibility Wind Dir Wind Speed Gust Speed Precip Events Conditions
12:15 AM 44.6 °F 39.7 °F 30.2 °F 57% 30.32 in 10.0 mi North 9.2 mph 18.4 mph N/A   Clear
12:35 AM 44.6 °F 38.8 °F 30.2 °F 57% 30.32 in 10.0 mi North 11.5 mph 18.4 mph N/A   Clear
12:55 AM 44.6 °F 39.7 °F 30.2 °F 57% 30.32 in 10.0 mi North 9.2 mph 17.3 mph N/A   Clear
1:15 AM 44.6 °F 38.8 °F 30.2 °F 57% 30.31 in 10.0 mi North 11.5 mph 17.3 mph N/A   Clear
1:35 AM 42.8 °F 37.5 °F 30.2 °F 61% 30.30 in 10.0 mi North 9.2 mph 17.3 mph N/A   Clear
1:55 AM 41.0 °F 35.8 °F 30.2 °F 65% 30.30 in 10.0 mi North 8.1 mph - N/A   Clear
2:15 AM 41.0 °F 36.4 °F 30.2 °F 65% 30.30 in 10.0 mi North 6.9 mph - N/A   Clear
2:35 AM 41.0 °F 35.8 °F 32.0 °F 70% 30.29 in 10.0 mi North 8.1 mph - N/A   Clear
2:55 AM 39.2 °F 33.6 °F 32.0 °F 75% 30.30 in 10.0 mi North 8.1 mph - N/A   Clear
3:35 AM 39.2 °F 35.0 °F 30.2 °F 70% 30.29 in 10.0 mi NNW 5.8 mph - N/A   Clear
3:55 AM 37.4 °F 31.4 °F 32.0 °F 81% 30.28 in 10.0 mi NNW 8.1 mph - N/A   Clear
4:15 AM 39.2 °F 33.0 °F 32.0 °F 75% 30.28 in 10.0 mi NNW 9.2 mph - N/A   Clear
4:35 AM 37.4 °F 32.8 °F 32.0 °F 81% 30.28 in 10.0 mi NNW 5.8 mph - N/A   Clear
4:55 AM 37.4 °F 31.4 °F 32.0 °F 81% 30.28 in 10.0 mi NNW 8.1 mph - N/A   Clear
5:15 AM 37.4 °F 31.4 °F 30.2 °F 75% 30.29 in 10.0 mi NNW 8.1 mph - N/A   Clear
5:35 AM 37.4 °F 30.8 °F 32.0 °F 81% 30.29 in 10.0 mi NNW 9.2 mph - N/A   Clear
5:55 AM 37.4 °F 32.1 °F 32.0 °F 81% 30.29 in 10.0 mi North 6.9 mph - N/A   Clear
6:15 AM 37.4 °F 31.4 °F 32.0 °F 81% 30.29 in 10.0 mi NNW 8.1 mph - N/A   Clear
6:55 AM 35.6 °F 28.6 °F 32.0 °F 87% 30.30 in 10.0 mi NNW 9.2 mph - N/A   Clear
7:15 AM 35.6 °F 29.2 °F 32.0 °F 87% 30.30 in 10.0 mi NNW 8.1 mph - N/A   Clear
7:35 AM 35.6 °F 29.9 °F 32.0 °F 87% 30.32 in 10.0 mi NNW 6.9 mph - N/A   Clear
7:55 AM 35.6 °F 30.7 °F 32.0 °F 87% 30.32 in 10.0 mi NNW 5.8 mph - N/A   Clear
8:15 AM 37.4 °F 32.1 °F 32.0 °F 81% 30.33 in 10.0 mi NNW 6.9 mph - N/A   Clear
8:35 AM 37.4 °F 30.3 °F 32.0 °F 81% 30.33 in 10.0 mi NNW 10.4 mph - N/A   Clear
8:55 AM 39.2 °F 31.6 °F 32.0 °F 75% 30.34 in 10.0 mi North 12.7 mph - N/A   Clear
9:15 AM 41.0 °F 33.5 °F 32.0 °F 70% 30.35 in 10.0 mi North 13.8 mph - N/A   Clear
9:35 AM 42.8 °F 35.8 °F 32.0 °F 66% 30.35 in 10.0 mi North 13.8 mph - N/A   Clear
11:15 AM 46.4 °F 42.4 °F 32.0 °F 57% 30.34 in 10.0 mi North 8.1 mph - N/A   Clear
11:35 AM 48.2 °F - 32.0 °F 54% 30.33 in 10.0 mi North 6.9 mph - N/A   Clear
11:55 AM 50.0 °F - 32.0 °F 50% 30.32 in 10.0 mi NNW 5.8 mph - N/A   Clear
12:15 PM 50.0 °F - 32.0 °F 50% 30.32 in 10.0 mi North 8.1 mph - N/A   Clear
12:35 PM 51.8 °F - 32.0 °F 47% 30.30 in 10.0 mi NNW 5.8 mph - N/A   Clear
12:55 PM 51.8 °F - 32.0 °F 47% 30.29 in 10.0 mi NNW 8.1 mph - N/A   Clear
1:15 PM 51.8 °F - 32.0 °F 47% 30.28 in 10.0 mi NNW 6.9 mph - N/A   Clear
1:35 PM 51.8 °F - 32.0 °F 47% 30.26 in 10.0 mi North 8.1 mph - N/A   Clear
1:55 PM 53.6 °F - 30.2 °F 41% 30.24 in 10.0 mi North 9.2 mph - N/A   Clear
2:15 PM 53.6 °F - 30.2 °F 41% 30.23 in 10.0 mi NNW 10.4 mph 16.1 mph N/A   Clear
2:35 PM 55.4 °F - 30.2 °F 38% 30.21 in 10.0 mi NNW 12.7 mph - N/A   Clear
2:55 PM 55.4 °F - 28.4 °F 36% 30.20 in 10.0 mi NNW 8.1 mph - N/A   Clear
3:15 PM 55.4 °F - 28.4 °F 36% 30.20 in 10.0 mi North 5.8 mph 9.2 mph N/A   Clear
3:35 PM 55.4 °F - 26.6 °F 33% 30.18 in 10.0 mi North 6.9 mph - N/A   Clear
3:55 PM 55.4 °F - 28.4 °F 36% 30.18 in 10.0 mi NNW 10.4 mph - N/A   Clear
4:15 PM 55.4 °F - 26.6 °F 33% 30.18 in 10.0 mi NNW 6.9 mph - N/A   Clear
4:55 PM 55.4 °F - 26.6 °F 33% 30.18 in 10.0 mi North 8.1 mph - N/A   Clear
5:15 PM 55.4 °F - 26.6 °F 33% 30.18 in 10.0 mi North 5.8 mph - N/A   Clear
5:35 PM 55.4 °F - 26.6 °F 33% 30.18 in 10.0 mi North 8.1 mph - N/A   Clear
5:55 PM 55.4 °F - 28.4 °F 36% 30.18 in 10.0 mi NW 5.8 mph - N/A   Clear
6:15 PM 53.6 °F - 28.4 °F 38% 30.18 in 10.0 mi NW 9.2 mph - N/A   Clear
6:35 PM 51.8 °F - 30.2 °F 44% 30.18 in 10.0 mi NW 4.6 mph - N/A   Clear
6:55 PM 50.0 °F - 30.2 °F 47% 30.19 in 10.0 mi NW 4.6 mph - N/A   Clear
7:15 PM 50.0 °F - 30.2 °F 47% 30.20 in 10.0 mi NW 4.6 mph - N/A   Clear
7:35 PM 46.4 °F 43.5 °F 30.2 °F 53% 30.20 in 10.0 mi NNW 5.8 mph - N/A   Clear
7:55 PM 46.4 °F 43.5 °F 30.2 °F 53% 30.20 in 10.0 mi NNW 5.8 mph - N/A   Clear
8:15 PM 46.4 °F 42.9 °F 28.4 °F 50% 30.20 in 10.0 mi NNW 6.9 mph - N/A   Clear
8:35 PM 46.4 °F 42.9 °F 28.4 °F 50% 30.21 in 10.0 mi NNW 6.9 mph - N/A   Clear
8:55 PM 44.6 °F 40.7 °F 28.4 °F 53% 30.21 in 10.0 mi NNW 6.9 mph - N/A   Clear
9:15 PM 42.8 °F 38.6 °F 28.4 °F 57% 30.21 in 10.0 mi NNW 6.9 mph - N/A   Clear
9:35 PM 42.8 °F 39.3 °F 28.4 °F 57% 30.22 in 10.0 mi North 5.8 mph - N/A   Clear
9:55 PM 44.6 °F 41.4 °F 26.6 °F 49% 30.22 in 10.0 mi North 5.8 mph - N/A   Clear
10:15 PM 42.8 °F 40.1 °F 26.6 °F 53% 30.23 in 10.0 mi North 4.6 mph - N/A   Clear
10:35 PM 42.8 °F 40.1 °F 28.4 °F 57% 30.24 in 10.0 mi North 4.6 mph - N/A   Clear
11:15 PM 41.0 °F 38.0 °F 28.4 °F 61% 30.24 in 10.0 mi North 4.6 mph - N/A   Clear
11:55 PM 41.0 °F 37.1 °F 28.4 °F 61% 30.25 in 10.0 mi North 5.8 mph - N/A   Clear